Wind_Speed
29 28 28 31 32 30 31 33 30 23 23 29 34 35 36 38 40 37 32 29 22 20 21 16 14 16 18 18 16 16 18 18 20 21 21 21 19 17 16 14 12 10 13 17 19 19 19 20 20 20 19 17 16 16 17 17 17 16 14 14 14 15 16
28 29 32 35 35 34 36 32 25 25 30 33 35 36 36 40 42 36 30 28 24 22 20 16 14 14 17 19 17 17 17 18 19 19 19 20 18 17 15 14 14 13 14 18 20 21 20 20 21 20 20 19 19 19 18 17 16 14 14 15 15 15 15
31 33 37 39 39 38 36 30 28 33 37 35 36 37 35 37 39 32 26 25 24 19 14 12 14 13 14 18 18 18 17 18 18 16 16 17 18 19 18 17 16 15 15 16 19 22 21 19 21 21 21 21 21 20 18 17 16 15 15 15 14 14 14
37 40 43 43 40 37 35 33 35 38 37 35 37 38 35 35 35 31 26 22 16 12 12 12 12 12 14 17 18 18 18 17 17 16 15 15 16 19 20 18 16 13 12 14 18 22 22 20 20 21 22 23 22 21 19 16 16 16 15 14 13 13 14
44 47 48 44 39 37 36 37 38 37 38 38 38 39 37 35 34 31 28 19 6 4 10 13 12 12 13 15 17 19 19 19 19 17 16 15 14 18 21 18 15 13 11 12 17 21 23 22 22 23 25 24 23 22 20 18 17 16 15 14 13 14 14
49 50 47 42 38 38 39 39 38 37 38 39 40 40 37 34 33 30 29 25 11 7 10 12 14 14 12 13 15 17 18 20 20 18 17 16 15 18 21 18 15 13 10 12 16 20 24 25 24 25 25 25 24 23 20 19 18 16 15 14 14 15 14
51 49 46 43 41 41 42 43 41 39 41 42 42 40 34 33 34 30 32 30 17 11 13 14 15 15 14 14 15 16 18 19 20 19 20 19 18 20 22 20 17 14 11 14 16 19 24 25 25 26 26 25 25 23 22 21 18 16 15 15 16 16 14
51 50 49 48 47 46 48 48 44 44 45 44 42 38 34 37 38 34 35 33 18 12 13 15 16 17 17 15 14 15 17 19 21 22 22 21 20 23 24 22 21 17 13 15 18 20 22 25 25 26 26 26 25 23 23 22 19 16 16 18 18 16 14
53 53 53 54 53 53 54 52 48 47 45 43 42 40 39 42 41 37 37 34 22 15 15 17 19 19 18 17 15 15 16 19 21 22 23 23 23 24 25 25 24 21 16 16 19 19 19 22 24 25 26 26 25 23 22 22 20 19 19 20 18 16 15
57 56 56 57 57 56 56 55 52 49 46 45 44 42 44 46 42 39 39 34 24 18 18 19 20 20 19 18 17 17 16 17 20 21 23 24 24 25 26 26 25 25 21 19 20 19 17 19 22 24 25 25 25 23 21 21 22 22 22 21 19 18 17
59 58 57 58 58 58 58 57 54 52 49 47 45 46 49 47 42 41 39 33 29 24 20 19 21 22 21 20 19 19 18 17 19 21 23 25 25 26 27 26 25 25 24 22 22 20 16 16 19 22 24 24 23 22 20 21 23 23 23 22 20 19 17
61 60 58 59 59 59 60 58 56 54 51 49 49 51 51 46 45 44 36 30 31 29 22 21 21 21 21 20 20 20 20 19 20 21 22 24 26 27 28 28 26 26 26 25 24 22 18 17 18 20 23 23 22 21 20 22 23 23 23 22 21 19 18
64 62 61 60 59 60 60 59 57 55 53 51 51 52 49 47 48 43 32 30 34 31 26 22 20 21 22 21 22 23 23 22 20 21 22 23 24 25 27 27 26 26 27 26 25 23 19 18 18 20 23 23 22 21 21 22 22 22 22 22 20 19 18
66 65 64 62 61 61 60 59 58 57 55 53 52 52 49 48 49 43 36 37 38 33 29 24 21 23 25 25 26 27 26 24 22 22 23 23 23 24 26 27 26 27 28 27 25 23 20 18 19 21 23 23 23 22 21 21 20 19 20 20 18 17 17
69 67 67 65 63 63 62 60 59 58 56 55 54 54 53 51 51 46 41 43 41 34 29 26 23 24 27 28 29 30 29 27 25 25 25 25 25 26 26 27 27 27 27 26 24 23 21 19 20 22 24 25 25 24 22 22 20 20 20 18 16 15 15
71 69 69 68 66 65 64 61 59 58 58 58 57 56 56 55 53 48 46 47 43 33 27 26 25 25 27 28 30 31 31 30 29 28 28 28 28 27 27 28 28 27 27 26 23 20 19 19 20 21 24 26 27 27 26 24 23 23 22 20 17 15 15
74 71 71 70 68 67 65 61 60 60 59 59 58 58 57 56 54 52 51 49 40 30 28 29 28 28 29 29 30 31 32 33 33 31 29 30 29 28 28 29 30 28 27 27 25 21 19 20 19 18 21 24 26 27 27 27 27 26 24 23 21 18 17
76 74 73 72 72 70 66 63 62 60 60 60 60 59 58 57 55 54 52 48 40 35 34 34 31 30 32 32 32 33 34 36 36 33 31 32 31 30 30 31 31 30 28 27 27 24 22 22 21 20 20 22 25 30 31 31 31 29 25 25 24 21 20
79 76 75 75 75 70 67 66 64 61 61 62 61 60 59 57 57 56 54 51 46 41 39 37 34 33 35 36 35 35 36 37 37 36 33 33 33 32 32 32 32 30 28 27 27 25 24 24 24 24 23 22 25 29 31 31 31 29 26 25 24 23 22
81 79 77 78 76 72 70 70 67 63 62 61 61 61 59 58 58 58 57 55 50 45 42 40 37 37 39 39 38 37 36 37 37 37 35 34 35 35 34 34 32 30 29 29 29 27 26 27 26 25 24 24 25 27 28 28 27 26 25 25 25 24 24
83 81 80 80 78 75 73 72 70 67 63 61 62 63 60 58 59 59 58 55 52 49 47 43 41 42 43 42 41 39 37 36 37 38 37 36 36 36 36 36 34 32 31 32 32 31 30 29 28 26 26 27 27 28 29 28 26 26 26 26 26 26 26
84 82 82 82 81 78 75 73 73 71 66 62 63 64 61 57 58 59 57 55 53 51 50 47 45 45 46 45 44 41 39 37 36 37 38 38 37 37 37 38 36 34 34 34 34 34 34 32 31 29 28 28 29 30 31 30 29 28 27 26 27 28 28
84 84 84 84 83 81 77 75 75 74 70 65 62 64 63 58 57 58 57 54 53 52 52 50 49 49 49 48 45 42 41 39 38 37 39 39 38 38 38 39 39 37 37 38 38 38 38 38 36 33 31 29 29 30 31 31 30 29 27 27 29 29 29
85 85 86 85 84 82 78 77 76 75 74 69 63 64 65 60 57 58 56 53 52 52 53 52 51 50 49 47 45 43 42 41 40 39 39 39 39 39 39 40 40 39 39 40 40 40 40 40 39 37 34 32 31 31 31 30 30 30 28 28 30 30 31
86 85 86 86 85 82 78 76 76 75 76 73 67 65 64 60 57 56 55 52 51 51 52 52 51 50 47 46 46 45 42 41 41 41 41 40 40 40 41 41 41 41 41 40 40 41 41 41 41 40 38 37 36 35 34 33 32 31 30 30 31 32 34
85 85 85 86 85 83 78 76 75 75 75 75 71 66 63 60 57 55 54 52 51 50 51 51 51 49 47 46 46 45 43 41 40 40 41 42 42 42 43 44 44 43 43 43 42 42 42 42 42 42 42 40 39 38 38 36 34 33 33 34 35 36 38
85 85 86 86 87 84 78 74 74 75 75 75 73 67 62 59 56 54 52 51 49 49 49 50 50 49 48 47 46 45 44 42 40 40 41 42 44 44 44 46 47 46 46 46 45 44 43 43 43 44 44 42 41 40 39 37 35 35 35 36 37 38 39
86 86 88 90 89 83 74 68 69 72 74 74 73 68 62 58 55 53 52 51 49 48 47 48 48 48 47 47 46 45 45 44 42 41 41 42 44 45 45 47 49 49 49 49 48 47 46 45 45 45 45 44 44 43 41 40 39 38 38 38 39 40 40
87 87 88 88 84 75 67 65 66 68 70 70 70 67 63 59 55 53 52 51 50 49 48 48 48 48 47 47 47 46 45 45 44 43 42 42 42 44 45 46 48 50 50 50 50 50 49 48 47 47 47 47 47 46 45 44 44 43 43 43 43 44 44
83 84 84 84 80 70 64 64 64 63 63 64 64 63 61 59 56 53 52 51 52 52 52 51 51 50 49 48 48 48 46 45 44 44 43 43 42 43 43 44 46 49 50 51 51 51 51 51 50 50 51 50 50 50 49 49 49 48 48 48 47 47 47
74 75 78 82 80 71 63 61 61 59 59 57 56 56 56 54 53 54 53 51 52 53 55 55 54 52 52 50 50 51 50 48 46 45 44 44 43 42 42 42 43 44 46 48 49 50 50 51 51 51 52 52 53 53 53 53 53 52 50 49 48 46 45
65 66 70 76 79 73 64 62 61 57 54 53 51 52 54 52 51 53 55 54 55 56 56 57 56 55 54 54 53 54 53 51 49 46 45 44 44 43 42 41 41 41 43 45 47 47 48 48 48 48 49 49 50 51 51 51 50 48 47 46 45 44 43
60 60 62 70 76 75 68 65 64 58 52 53 53 53 55 56 55 57 57 57 58 59 58 58 57 56 57 58 58 58 57 55 52 50 47 46 46 45 44 43 41 41 43 45 46 46 45 45 45 45 45 45 45 45 46 46 45 45 45 45 46 46 46
57 57 57 60 68 74 71 66 65 62 56 55 58 56 56 58 61 61 60 60 61 61 60 59 56 55 59 63 63 62 61 59 56 54 52 51 49 48 48 47 44 43 44 46 47 47 45 44 44 44 44 44 45 45 46 46 47 47 47 47 47 48 49
55 55 55 51 55 68 73 67 64 65 61 57 58 57 56 58 60 58 58 61 64 63 62 60 55 53 58 64 65 64 63 62 59 57 55 54 53 52 51 50 47 44 43 45 47 47 46 45 45 45 45 46 47 47 47 48 48 48 48 48 48 48 49
54 54 53 49 50 62 71 68 64 65 65 62 60 58 56 56 57 55 56 59 62 61 59 57 54 52 54 60 63 64 63 61 60 59 59 58 56 54 52 51 49 46 44 43 44 46 47 47 47 48 48 48 48 49 48 49 49 49 50 49 49 49 49
52 54 51 48 50 59 69 70 65 63 65 66 64 62 58 55 53 53 54 55 57 58 59 58 56 53 50 53 59 62 60 58 59 61 62 61 58 55 53 52 51 50 47 45 44 45 46 47 48 50 51 52 52 51 50 50 51 51 51 50 50 49 49
Wind_Direction
222 220 219 222 225 226 228 229 229 235 241 241 242 242 242 247 251 253 257 259 261 262 258 254 245 237 235 232 220 209 205 203 206 207 201 198 194 193 195 193 196 212 233 241 238 232 229 231 237 242 247 250 245 239 238 240 242 245 247 248 246 244 243
221 220 221 222 222 221 225 227 225 231 233 232 236 237 235 238 245 249 251 254 256 254 253 252 248 240 236 238 236 222 213 209 210 212 213 210 206 206 202 194 199 210 223 235 240 238 233 230 235 240 244 246 242 237 236 237 239 241 239 237 237 239 242
218 220 222 223 222 221 224 222 219 226 230 231 235 238 236 236 243 250 252 255 257 256 258 258 252 246 240 241 243 238 230 222 216 214 218 219 220 222 212 199 201 210 222 232 237 239 237 233 232 235 239 242 241 238 235 233 233 233 232 233 236 239 240
219 222 224 223 222 223 224 222 221 225 230 232 236 241 242 241 246 253 256 257 257 255 263 266 257 251 248 245 246 247 244 235 226 221 223 227 231 225 210 197 196 202 218 231 233 234 234 232 231 232 236 240 241 241 237 233 231 230 230 232 235 239 240
222 225 227 226 224 225 226 227 228 230 233 235 235 239 242 243 245 250 253 250 230 216 250 258 258 251 246 246 247 248 249 244 236 229 224 230 234 217 198 189 189 193 211 229 232 231 229 227 228 230 234 237 238 240 237 233 231 229 228 231 236 243 246
225 228 230 229 227 227 228 229 230 232 236 238 239 241 244 247 250 254 257 256 246 227 233 235 242 241 230 232 236 237 243 244 239 235 231 233 230 210 195 189 189 193 210 229 233 232 228 226 228 232 235 237 238 239 238 235 233 230 229 232 239 247 254
229 229 229 228 227 227 228 228 227 227 232 235 239 242 245 252 254 255 259 258 245 226 230 226 230 234 226 225 225 223 229 232 230 232 235 236 226 209 199 197 195 195 213 230 232 232 229 227 228 233 235 237 239 240 240 240 239 235 233 235 241 249 259
230 229 228 227 226 226 228 228 225 225 228 232 236 240 241 246 248 248 252 251 232 213 228 227 227 232 232 229 225 222 223 222 221 224 230 235 226 213 209 210 207 204 213 231 233 229 228 226 228 231 234 237 239 238 239 242 243 240 236 238 243 252 261
228 226 226 227 226 226 229 230 228 227 228 230 234 235 235 238 240 240 244 245 232 215 219 223 225 228 230 231 227 224 223 223 225 223 225 231 227 218 216 217 218 216 217 233 238 232 227 227 229 233 237 239 239 237 238 242 245 243 240 240 247 254 259
229 227 226 228 228 229 232 232 231 230 229 229 232 236 238 239 239 238 242 246 243 227 215 219 226 226 227 230 229 228 225 225 230 227 224 229 228 221 220 220 223 225 223 230 239 235 230 229 230 234 239 241 240 238 236 238 240 241 240 243 248 254 257
231 230 228 229 230 232 234 234 233 232 231 231 232 236 239 242 243 243 245 250 252 242 222 214 222 225 225 226 227 230 229 226 230 229 224 225 226 222 222 222 224 229 227 226 232 234 233 235 234 234 238 239 239 237 234 231 233 236 240 245 249 251 255
232 232 230 229 230 232 234 235 235 234 233 233 234 238 241 242 244 245 247 251 254 251 236 217 216 223 226 225 224 226 227 225 228 232 229 227 226 225 225 225 224 229 229 226 228 229 227 233 237 236 235 234 233 232 228 224 225 230 238 246 249 250 253
233 232 231 230 231 232 233 235 237 236 235 235 236 240 242 243 245 247 248 250 251 251 244 228 216 220 227 227 225 226 228 225 224 232 235 232 227 224 227 229 228 230 229 224 224 225 223 227 235 237 236 235 234 231 228 225 227 230 237 245 249 250 253
233 233 232 231 231 232 234 235 236 237 237 237 238 239 240 241 245 246 244 245 246 246 245 239 224 222 227 229 228 229 231 229 225 228 233 232 226 221 224 230 231 231 230 226 224 225 223 223 231 238 241 242 241 239 236 235 235 238 242 248 252 255 259
234 233 233 232 231 232 234 234 236 237 238 239 238 238 237 238 241 241 240 242 243 241 243 244 234 227 227 228 230 232 234 232 227 225 227 226 224 220 221 226 229 230 233 235 233 230 227 226 230 237 242 244 243 240 238 239 242 245 247 249 252 257 263
233 233 234 234 233 233 234 234 235 236 238 238 238 238 239 239 240 240 239 240 240 240 244 248 244 238 232 228 227 231 234 234 230 226 226 226 224 222 221 223 227 229 231 235 237 234 231 233 236 240 243 245 244 241 238 239 241 245 248 249 251 254 258
233 232 233 234 234 233 234 234 233 233 235 238 238 238 240 241 242 242 242 242 241 241 243 243 241 240 238 231 226 227 231 234 233 228 226 227 226 224 223 224 227 229 230 231 235 237 236 234 236 243 249 251 252 250 245 242 240 241 243 247 250 251 251
232 231 232 234 234 233 233 232 231 232 236 237 237 238 239 241 243 245 246 246 241 236 236 237 236 236 238 236 230 225 226 231 235 232 226 226 227 225 224 226 228 230 231 230 232 235 235 230 227 232 242 248 250 249 246 244 244 243 242 244 248 249 248
231 230 230 232 234 234 233 233 231 231 233 234 236 238 239 240 243 244 245 244 240 234 233 235 235 233 235 236 233 229 226 228 234 236 230 226 227 226 226 228 230 232 233 232 230 229 230 230 228 228 233 239 242 244 246 247 249 251 249 246 246 247 247
231 230 230 231 234 234 234 234 233 230 229 232 236 238 238 239 241 241 241 242 240 236 233 233 234 234 235 235 235 233 230 226 228 235 235 230 228 228 228 229 232 233 233 233 231 229 227 229 229 227 230 235 238 241 246 249 250 252 251 247 245 247 249
231 231 231 232 234 234 233 234 235 232 230 230 235 237 237 237 239 241 241 242 241 239 235 231 231 235 237 239 238 236 234 228 225 229 234 233 231 231 230 231 233 233 233 234 235 236 235 234 233 228 227 230 233 235 240 245 246 246 244 244 244 247 251
230 231 232 232 233 233 232 234 235 235 232 229 233 237 237 235 238 241 241 241 241 241 239 234 231 233 237 241 242 239 236 232 226 225 230 233 233 232 232 234 234 234 234 236 239 242 245 245 242 236 232 233 233 233 236 242 247 247 246 247 247 247 250
228 230 232 233 233 233 232 232 234 236 234 230 230 235 236 234 236 239 240 240 240 240 240 237 234 234 237 241 243 242 240 236 231 227 228 231 232 232 231 233 236 236 235 237 240 242 245 246 245 242 241 241 239 240 243 247 250 252 252 250 248 247 250
227 229 232 233 234 234 233 233 234 235 236 233 229 231 235 234 234 237 238 238 238 238 239 239 238 238 240 242 243 243 242 240 236 232 231 232 232 231 229 231 236 238 235 235 237 241 244 246 246 246 248 249 247 249 252 251 251 256 257 252 247 246 248
225 228 231 233 234 234 234 234 234 235 236 235 231 230 234 234 233 235 238 238 237 238 239 240 241 241 241 242 244 245 244 242 239 236 234 233 232 231 228 228 232 236 237 234 234 237 241 244 246 248 251 252 252 254 256 256 257 261 262 255 248 247 249
223 226 229 232 233 234 234 235 235 236 236 237 234 232 233 233 232 234 236 237 238 238 239 240 241 241 241 242 244 246 245 242 240 238 236 234 233 231 229 227 228 232 236 237 237 237 239 241 245 248 251 252 253 255 258 261 264 265 262 256 252 253 255
221 223 226 229 231 232 233 234 235 236 236 237 237 234 232 232 232 233 234 236 237 238 239 240 241 242 242 242 243 244 244 242 239 237 236 235 234 232 230 228 228 230 233 236 239 240 241 242 245 249 252 254 255 257 260 261 263 261 258 256 255 256 258
220 222 225 229 231 231 231 232 234 236 237 237 237 237 234 232 232 232 233 234 236 237 239 240 241 242 241 241 241 241 241 241 240 237 236 236 236 235 233 232 231 232 233 235 237 239 241 243 245 248 252 254 255 258 260 262 261 260 259 259 259 260 262
221 221 224 227 229 228 229 231 233 236 238 239 239 239 237 235 232 232 233 234 235 237 238 239 240 240 239 239 240 240 240 240 240 239 237 235 236 237 237 237 236 236 236 237 237 239 240 242 244 247 250 252 254 256 258 260 262 263 264 264 264 265 267
223 223 223 224 224 224 226 229 232 234 237 239 240 241 241 239 236 234 234 235 236 237 237 237 239 240 241 240 240 242 243 242 239 239 238 236 235 237 238 240 240 239 239 240 240 240 241 242 243 245 247 250 253 254 256 258 260 262 264 264 265 266 267
223 224 224 223 221 221 222 226 229 232 235 237 239 240 240 240 238 236 234 233 233 235 236 236 236 237 240 241 241 242 244 244 241 239 238 238 238 237 238 239 241 241 241 242 243 244 245 246 246 246 247 249 251 254 255 257 259 261 262 263 265 266 266
221 223 224 223 220 218 219 223 226 229 231 231 232 235 236 236 236 236 235 234 232 231 232 233 233 234 236 239 241 241 242 243 242 241 241 242 242 240 237 237 238 241 243 245 246 248 249 250 251 251 252 252 253 254 256 258 260 262 264 266 267 268 268
216 218 222 223 219 215 216 220 223 224 226 223 223 229 236 237 236 235 234 233 232 231 232 233 235 237 238 239 240 240 240 241 242 243 245 247 247 245 242 238 237 240 243 245 247 248 248 249 250 251 252 253 254 254 256 258 260 263 265 267 267 266 266
211 213 217 222 220 215 214 216 219 221 222 222 223 228 232 232 229 228 229 230 230 231 233 235 239 242 241 237 235 236 237 237 239 242 246 249 251 250 248 246 246 245 244 244 246 247 247 247 248 249 249 250 251 253 255 257 258 260 261 262 262 261 261
207 210 214 219 219 214 211 213 216 218 219 221 223 225 224 220 217 217 219 221 224 227 229 232 238 241 237 231 228 230 232 234 236 239 244 247 250 250 250 251 253 254 251 247 245 245 247 249 251 252 252 253 254 255 257 259 260 261 262 263 262 261 260
203 205 210 216 216 211 208 209 212 216 217 218 219 221 220 216 213 212 212 212 216 221 223 227 232 232 225 220 220 222 227 231 234 238 241 244 246 248 249 252 256 258 256 252 248 247 249 251 254 256 258 259 259 259 262 264 266 267 268 268 268 267 266
204 204 205 210 214 211 208 206 208 213 216 216 216 216 216 214 210 211 212 211 212 216 220 224 228 225 216 211 213 216 221 227 232 237 240 242 244 245 247 251 255 257 257 256 255 254 254 256 257 259 261 262 262 263 265 267 269 270 271 270 270 270 270
Height
5813 5815 5817 5816 5816 5819 5819 5819 5824 5829 5830 5828 5827 5828 5831 5832 5829 5830 5832 5834 5838 5840 5841 5845 5848 5851 5854 5857 5859 5862 5863 5865 5866 5867 5868 5869 5871 5872 5873 5875 5877 5878 5879 5880 5882 5884 5885 5887 5888 5890 5891 5893 5895 5895 5896 5897 5898 5900 5901 5902 5903 5904 5904
5809 5810 5810 5810 5811 5813 5813 5817 5825 5826 5823 5822 5822 5823 5826 5827 5824 5826 5830 5832 5834 5837 5839 5843 5846 5849 5852 5854 5856 5859 5860 5862 5864 5866 5868 5869 5870 5871 5872 5873 5875 5876 5877 5878 5879 5881 5883 5885 5886 5888 5889 5891 5892 5893 5894 5895 5896 5898 5899 5899 5900 5901 5902
5803 5803 5802 5802 5804 5808 5811 5817 5820 5817 5815 5818 5818 5818 5821 5823 5822 5825 5829 5831 5832 5835 5838 5842 5845 5847 5849 5851 5853 5855 5857 5859 5861 5864 5866 5867 5869 5869 5870 5871 5872 5873 5875 5876 5877 5878 5880 5882 5883 5885 5887 5888 5889 5890 5891 5892 5894 5895 5896 5897 5898 5899 5900
5796 5794 5793 5795 5801 5805 5809 5812 5812 5810 5812 5815 5815 5815 5818 5821 5822 5824 5828 5829 5830 5833 5837 5840 5842 5844 5846 5848 5850 5852 5854 5856 5858 5861 5863 5865 5866 5867 5868 5869 5870 5872 5873 5873 5875 5876 5878 5879 5881 5882 5883 5884 5886 5887 5888 5890 5891 5893 5893 5895 5896 5896 5897
5788 5786 5786 5792 5800 5803 5805 5806 5808 5809 5810 5811 5812 5812 5814 5818 5820 5822 5825 5827 5828 5833 5836 5837 5839 5841 5843 5844 5846 5848 5850 5853 5855 5857 5859 5862 5863 5865 5866 5867 5868 5869 5870 5871 5872 5873 5875 5876 5877 5878 5879 5881 5883 5884 5885 5887 5889 5890 5892 5892 5893 5893 5894
5781 5782 5786 5793 5798 5799 5801 5802 5805 5807 5808 5808 5808 5808 5812 5816 5818 5820 5821 5822 5827 5833 5834 5834 5836 5837 5839 5841 5842 5844 5847 5849 5851 5854 5856 5858 5860 5862 5864 5865 5866 5867 5868 5869 5869 5870 5871 5873 5874 5875 5876 5878 5880 5881 5882 5884 5885 5888 5889 5890 5890 5890 5891
5778 5781 5785 5789 5792 5794 5795 5795 5800 5803 5802 5802 5803 5807 5813 5815 5814 5817 5818 5817 5823 5830 5832 5833 5834 5835 5836 5838 5839 5841 5843 5845 5847 5850 5852 5854 5857 5860 5861 5862 5863 5864 5865 5866 5866 5867 5868 5869 5871 5872 5874 5876 5877 5879 5880 5881 5882 5885 5887 5887 5888 5888 5889
5775 5778 5781 5782 5784 5787 5786 5787 5793 5795 5795 5798 5802 5807 5811 5809 5808 5813 5814 5813 5820 5828 5830 5831 5832 5833 5834 5836 5837 5839 5840 5842 5844 5846 5848 5851 5854 5856 5858 5859 5860 5861 5862 5862 5862 5863 5865 5867 5868 5869 5871 5873 5874 5876 5877 5878 5880 5882 5884 5884 5885 5886 5886
5768 5770 5772 5773 5776 5778 5778 5781 5787 5790 5793 5798 5799 5802 5804 5801 5802 5808 5808 5808 5816 5826 5828 5829 5830 5831 5832 5834 5835 5837 5838 5839 5841 5843 5845 5847 5850 5852 5854 5855 5857 5857 5859 5859 5859 5860 5862 5864 5866 5867 5868 5870 5872 5873 5875 5875 5877 5879 5880 5881 5882 5883 5884
5760 5762 5765 5767 5769 5772 5774 5778 5783 5787 5791 5793 5795 5798 5797 5794 5799 5804 5803 5806 5814 5822 5825 5826 5828 5829 5830 5832 5833 5834 5836 5837 5838 5840 5842 5844 5847 5849 5850 5852 5853 5854 5855 5856 5856 5857 5859 5861 5863 5864 5866 5867 5869 5871 5872 5873 5875 5876 5877 5879 5880 5881 5881
5753 5756 5760 5763 5766 5768 5769 5772 5777 5782 5786 5789 5792 5792 5788 5791 5797 5799 5801 5807 5812 5817 5823 5825 5825 5826 5828 5829 5830 5832 5833 5835 5836 5837 5839 5841 5843 5845 5847 5849 5850 5851 5852 5853 5853 5854 5856 5858 5860 5862 5863 5865 5866 5868 5869 5871 5872 5873 5874 5876 5878 5879 5879
5746 5751 5754 5757 5759 5762 5764 5767 5772 5777 5781 5785 5786 5784 5785 5791 5793 5793 5801 5808 5808 5811 5819 5822 5823 5824 5825 5827 5828 5829 5830 5832 5833 5834 5836 5837 5840 5842 5844 5845 5847 5849 5850 5851 5851 5852 5854 5855 5857 5859 5861 5862 5864 5865 5867 5868 5869 5871 5872 5873 5875 5876 5877
5739 5744 5748 5751 5754 5757 5759 5763 5768 5772 5776 5780 5781 5781 5785 5789 5788 5791 5803 5806 5803 5807 5813 5818 5822 5823 5823 5824 5825 5825 5827 5829 5830 5832 5833 5835 5837 5839 5841 5842 5845 5846 5848 5849 5849 5850 5851 5853 5854 5857 5858 5860 5861 5863 5864 5865 5867 5869 5870 5871 5873 5874 5875
5731 5736 5740 5745 5748 5751 5754 5759 5762 5766 5771 5775 5777 5779 5782 5784 5784 5790 5799 5798 5797 5803 5809 5813 5818 5819 5819 5821 5821 5821 5823 5825 5827 5828 5830 5832 5834 5836 5838 5839 5842 5844 5845 5846 5847 5848 5849 5850 5852 5854 5856 5858 5859 5861 5862 5863 5865 5867 5868 5869 5870 5871 5872
5722 5728 5732 5737 5741 5745 5748 5753 5758 5762 5765 5769 5772 5774 5776 5778 5779 5786 5792 5791 5792 5801 5806 5809 5813 5815 5816 5817 5817 5818 5820 5821 5823 5825 5826 5829 5830 5832 5834 5836 5838 5840 5842 5844 5845 5846 5847 5848 5850 5852 5854 5855 5857 5858 5860 5861 5863 5864 5865 5867 5868 5869 5871
5715 5721 5723 5728 5735 5739 5743 5749 5754 5757 5759 5762 5766 5768 5771 5773 5776 5782 5785 5784 5789 5800 5805 5806 5809 5810 5812 5813 5815 5816 5816 5817 5819 5820 5822 5825 5827 5828 5831 5833 5835 5837 5839 5841 5843 5844 5846 5847 5848 5850 5851 5853 5854 5855 5857 5859 5860 5861 5862 5864 5865 5867 5869
5707 5713 5715 5721 5727 5731 5738 5745 5748 5750 5753 5757 5760 5763 5766 5769 5773 5777 5778 5781 5791 5799 5801 5800 5803 5805 5807 5809 5811 5812 5813 5813 5814 5816 5819 5821 5823 5826 5828 5830 5832 5834 5836 5838 5840 5842 5843 5845 5846 5848 5849 5850 5851 5853 5855 5856 5856 5857 5859 5861 5863 5864 5866
5698 5704 5709 5714 5717 5724 5733 5738 5741 5746 5750 5751 5753 5757 5761 5765 5769 5772 5776 5781 5788 5793 5793 5794 5797 5800 5802 5804 5806 5807 5808 5809 5810 5812 5815 5817 5820 5822 5824 5826 5828 5830 5833 5835 5836 5838 5840 5842 5844 5845 5845 5847 5848 5849 5851 5851 5852 5854 5856 5858 5860 5862 5863
5689 5696 5702 5704 5708 5720 5728 5729 5734 5742 5743 5743 5747 5752 5757 5761 5764 5767 5771 5775 5781 5785 5787 5790 5792 5794 5796 5797 5800 5802 5803 5805 5807 5809 5811 5813 5816 5818 5820 5822 5824 5827 5829 5831 5833 5835 5837 5838 5840 5841 5842 5843 5845 5845 5846 5847 5849 5851 5853 5855 5856 5858 5859
5680 5688 5693 5695 5703 5715 5719 5720 5728 5733 5734 5739 5744 5747 5753 5757 5758 5760 5764 5769 5774 5779 5782 5785 5787 5788 5789 5791 5794 5797 5799 5802 5804 5806 5808 5810 5811 5814 5816 5818 5820 5823 5826 5828 5829 5831 5832 5833 5835 5836 5838 5840 5841 5842 5843 5844 5846 5848 5850 5851 5853 5854 5855
5673 5680 5684 5689 5698 5706 5710 5715 5721 5724 5729 5737 5739 5741 5748 5753 5753 5754 5759 5764 5769 5773 5777 5780 5782 5782 5784 5786 5789 5792 5795 5798 5800 5803 5804 5806 5808 5810 5812 5814 5817 5819 5822 5824 5826 5827 5828 5830 5831 5833 5834 5836 5837 5839 5839 5840 5842 5844 5845 5847 5849 5850 5851
5667 5672 5676 5682 5688 5695 5704 5710 5712 5715 5724 5731 5733 5736 5743 5748 5749 5750 5754 5759 5764 5769 5772 5775 5777 5777 5778 5781 5784 5788 5791 5793 5796 5799 5801 5802 5804 5806 5808 5810 5813 5815 5818 5820 5822 5824 5825 5827 5828 5830 5831 5832 5833 5834 5835 5836 5838 5840 5841 5843 5845 5846 5847
5660 5664 5668 5673 5679 5688 5698 5703 5705 5709 5715 5724 5730 5731 5735 5743 5745 5746 5749 5754 5759 5763 5766 5769 5771 5772 5774 5777 5780 5784 5787 5789 5792 5795 5797 5799 5801 5803 5804 5806 5808 5811 5814 5816 5818 5820 5821 5823 5825 5826 5827 5828 5829 5830 5832 5833 5835 5836 5838 5840 5841 5842 5843
5654 5658 5661 5666 5672 5682 5691 5696 5700 5704 5708 5717 5724 5724 5729 5738 5741 5741 5745 5750 5754 5757 5760 5763 5766 5768 5771 5775 5777 5779 5782 5785 5788 5790 5792 5795 5797 5799 5801 5802 5804 5807 5809 5811 5814 5815 5817 5819 5820 5821 5823 5824 5825 5827 5829 5830 5831 5832 5835 5836 5836 5836 5838
5649 5651 5654 5659 5667 5677 5685 5689 5695 5700 5703 5708 5714 5719 5726 5734 5736 5738 5742 5746 5749 5752 5754 5758 5761 5764 5767 5770 5772 5774 5778 5781 5783 5786 5788 5790 5792 5794 5796 5798 5800 5802 5804 5806 5809 5811 5812 5814 5815 5817 5818 5820 5821 5823 5824 5825 5827 5829 5831 5831 5831 5831 5832
5642 5646 5651 5654 5660 5670 5678 5683 5689 5694 5696 5700 5708 5717 5723 5727 5731 5735 5739 5741 5744 5747 5749 5753 5757 5759 5763 5765 5767 5770 5773 5775 5778 5781 5783 5785 5787 5789 5792 5794 5795 5797 5799 5801 5803 5805 5807 5809 5810 5812 5813 5815 5817 5818 5819 5821 5824 5825 5826 5826 5826 5827 5827
5637 5641 5643 5645 5652 5665 5674 5678 5682 5687 5690 5696 5705 5713 5717 5721 5727 5732 5735 5737 5740 5742 5745 5748 5751 5754 5757 5760 5762 5765 5767 5770 5773 5775 5777 5780 5782 5784 5786 5788 5790 5792 5794 5795 5797 5800 5802 5804 5805 5806 5807 5809 5811 5813 5815 5817 5818 5819 5820 5821 5821 5822 5823
5629 5632 5635 5639 5650 5664 5670 5673 5677 5681 5686 5693 5701 5707 5712 5718 5724 5728 5731 5733 5735 5737 5740 5743 5746 5749 5752 5754 5757 5760 5762 5765 5767 5770 5772 5775 5777 5779 5781 5783 5785 5787 5788 5790 5792 5794 5796 5799 5801 5802 5803 5805 5807 5808 5810 5811 5811 5812 5814 5815 5816 5817 5818
5621 5626 5632 5640 5651 5662 5666 5669 5673 5678 5683 5689 5696 5702 5708 5714 5719 5724 5727 5730 5731 5733 5736 5738 5740 5743 5746 5749 5752 5755 5757 5760 5762 5765 5767 5770 5772 5775 5776 5778 5780 5782 5783 5785 5787 5789 5791 5793 5795 5797 5798 5800 5802 5804 5805 5806 5806 5807 5809 5810 5811 5812 5813
5617 5623 5629 5637 5648 5657 5663 5666 5670 5675 5680 5686 5692 5698 5704 5708 5714 5719 5723 5725 5727 5729 5731 5733 5735 5737 5740 5744 5747 5749 5752 5754 5757 5760 5762 5765 5768 5770 5772 5774 5775 5776 5778 5780 5782 5784 5786 5788 5790 5792 5793 5795 5797 5798 5800 5801 5802 5803 5804 5805 5806 5807 5808
5612 5618 5624 5633 5643 5652 5658 5662 5667 5673 5679 5684 5689 5694 5698 5702 5708 5712 5716 5719 5722 5724 5725 5728 5730 5732 5735 5738 5741 5744 5746 5748 5751 5754 5757 5760 5763 5766 5768 5769 5771 5772 5774 5775 5777 5779 5781 5782 5784 5787 5788 5790 5791 5792 5794 5795 5796 5797 5798 5799 5800 5801 5802
5605 5612 5620 5628 5637 5647 5653 5658 5664 5671 5676 5682 5686 5688 5692 5697 5700 5704 5708 5712 5714 5716 5718 5721 5724 5726 5729 5732 5735 5738 5741 5743 5746 5749 5752 5756 5759 5761 5764 5766 5767 5768 5770 5771 5772 5774 5775 5777 5779 5781 5782 5784 5785 5787 5788 5789 5789 5790 5791 5792 5793 5794 5795
5600 5607 5615 5622 5631 5641 5648 5654 5662 5669 5672 5676 5680 5683 5687 5691 5693 5696 5700 5704 5707 5710 5712 5715 5719 5722 5724 5727 5730 5733 5736 5739 5742 5744 5748 5751 5754 5757 5759 5761 5763 5765 5766 5766 5768 5769 5771 5773 5774 5775 5777 5778 5779 5781 5782 5782 5783 5784 5785 5786 5787 5788 5789
5595 5605 5613 5619 5627 5636 5643 5650 5659 5666 5668 5669 5673 5678 5681 5683 5685 5688 5692 5696 5699 5702 5706 5710 5714 5717 5719 5721 5723 5726 5729 5733 5736 5739 5742 5745 5748 5751 5753 5755 5758 5760 5761 5762 5762 5764 5766 5768 5769 5771 5772 5773 5774 5775 5776 5777 5778 5779 5780 5781 5782 5782 5783
5592 5602 5610 5615 5621 5630 5638 5645 5654 5661 5663 5664 5668 5674 5677 5678 5679 5683 5687 5688 5689 5692 5698 5704 5708 5711 5712 5713 5714 5717 5722 5726 5731 5734 5737 5739 5742 5744 5746 5749 5752 5754 5755 5757 5758 5759 5760 5762 5764 5765 5766 5767 5768 5769 5769 5770 5771 5772 5773 5774 5775 5775 5776
5590 5598 5605 5611 5616 5624 5632 5640 5648 5656 5658 5659 5662 5669 5674 5676 5678 5680 5682 5682 5682 5686 5692 5698 5702 5704 5705 5705 5705 5709 5716 5722 5727 5730 5732 5734 5736 5738 5740 5743 5745 5747 5749 5751 5753 5754 5755 5756 5758 5759 5760 5760 5761 5762 5763 5764 5764 5765 5766 5766 5767 5767 5767
5587 5593 5601 5607 5613 5619 5627 5635 5643 5650 5654 5655 5658 5664 5669 5673 5676 5677 5677 5677 5679 5682 5686 5691 5695 5698 5699 5697 5698 5703 5711 5717 5721 5725 5728 5730 5732 5734 5736 5738 5740 5742 5744 5746 5747 5749 5750 5750 5751 5752 5752 5753 5754 5756 5757 5758 5758 5758 5759 5759 5760 5760 5760